Regional Weather Roundup
Issued by NWS

Home | Current Version | Previous Version | Graphics & Text | Print | Product List | Glossary On
Versions: 1 2 3 4 5 6 7 8 9 10 11 12 13 14 15 16 17 18 19 20 21 22 23 24 25 26 27 28 29 30 31 32 33 34 35 36 37 38 39 40 41 42 43 44 45 46 47 48 49 50
000
ASUS45 KABQ 191101
RWRNM
WEATHER ROUNDUP FOR NEW MEXICO
NATIONAL WEATHER SERVICE ALBUQUERQUE NM
500 AM MDT FRI SEP 19 2014

NOTE: "FAIR" MEANS FEW OR NO CLOUDS BELOW 12,000 FEET AGL WITH NO
       SIGNIFICANT WEATHER OR OBSTRUCTIONS TO VISION.

      THIS PRODUCT IS RELEASED AS TWO VERSIONS.  ONE VERSION NEAR
      THE TOP OF THE HOUR CONTAINING PRELIMINARY DATA FROM ALBUQUERQUE
      AND OTHER STATIONS.  A FINAL VERSION WITH ADDITIONAL DATA IS
      ISSUED ABOUT 10 MINUTES AFTER THE HOUR.

NMZ501-503-504-510>518-191200-
NORTHWEST PLATEAU/NORTHCENTRAL MOUNTAINS

CITY           SKY/WX    TMP DP  RH WIND       PRES   REMARKS
FARMINGTON     CLEAR     56  38  50 CALM      30.05R
LOS ALAMOS     CLEAR     56  52  85 SW8       30.19R
SANTA FE       CLOUDY    59  52  77 NE5       30.13R
TAOS           CLOUDY    54  48  82 CALM      30.20R
ANGEL FIRE     FOG       43  41  93 CALM      30.27R VSB 1/4

$$
NMZ402-403-502-505>509-191200-
WESTCENTRAL MOUNTAINS/SOUTHWEST MOUNTAINS

CITY           SKY/WX    TMP DP  RH WIND       PRES   REMARKS
GALLUP         CLEAR     47  42  83 E3        30.13R
GRANTS         CLEAR     45  39  81 N6        30.15R
SILVER CITY    CLOUDY    61  61 100 N3        30.06S FOG

$$
NMZ407-409-411-412-191200-
SOUTHERN DESERTS

CITY           SKY/WX    TMP DP  RH WIND       PRES   REMARKS
LORDSBURG      CLOUDY    63  63 100 MISG      29.99S
DEMING         FOG       61  61 100 W5        29.99S VSB 1/4
LAS CRUCES     CLOUDY    65  64  97 CALM      29.99S
ALAMOGORDO     LGT RAIN  64  64 100 NW8       29.97S
T OR C         CLOUDY    62  58  86 NW7       30.00S

$$
NMZ519>523-191200-
CENTRAL VALLEYS/CENTRAL HIGHLANDS

CITY           SKY/WX    TMP DP  RH WIND       PRES   REMARKS
ALBUQUERQUE    CLOUDY    66  58  75 N7        30.07S
DOUBLE EAGLE   CLOUDY    58  55  89 N3        30.11R
CLINES CORNERS CLOUDY    58  55  90 E6        30.15S
BELEN          FAIR      60  59  96 N5        30.06R
SOCORRO        MOCLDY    61  59  95 W3        30.02S

$$
NMZ524>526-539-540-191200-
SOUTHCENTRAL MOUNTAINS

CITY           SKY/WX    TMP DP  RH WIND       PRES   REMARKS
RUIDOSO        NOT AVBL

$$
NMZ527>531-191200-
NORTHEAST HIGHLANDS/NORTHEAST PLAINS

CITY           SKY/WX    TMP DP  RH WIND       PRES   REMARKS
LAS VEGAS      CLOUDY    56  55  97 CALM      30.17R
RATON          CLOUDY    59  57  93 S9        30.12S
CLAYTON        CLOUDY    62  58  86 S14       30.07S

$$
NMZ532>537-191200-
EASTCENTRAL PLAINS

CITY           SKY/WX    TMP DP  RH WIND       PRES   REMARKS
TUCUMCARI      CLOUDY    66  61  84 CALM      30.03R
CANNON AFB     MOCLDY    64  63  94 SE5       30.05S FOG
CLOVIS AIRPORT   N/A     63  63 100 S3        30.07S

$$
NMZ028-029-538-191200-
SOUTHEAST PLAINS

CITY           SKY/WX    TMP DP  RH WIND       PRES   REMARKS
ROSWELL        CLOUDY    67  65  93 E8        29.96S
CARLSBAD       CLOUDY    69  32  25 VRB3      29.91S


$$



USA.gov is the U.S. government's official web portal to all federal, state and local government web resources and services.